Location: Newark
(36.0797°N, 3.9744°E)
Time: 07:27:37
(UTC+00:00)

Vanguard 2 Rocket - Pass Details

Date: 11 December 2019
Orbit: 554 x 3326 km, 32.9° (Epoch: 26 January)

Event Time Altitude Azimuth Distance (km) Brightness Sun altitude
Rises 12:27:39 0° 179° (S) 7,284 12.6 29.7°
Reaches altitude 10° 12:41:45 10° 143° (SE) 6,080 11.7 29.0°
Maximum altitude 12:43:02 10° 139° (SE) 6,024 11.6 28.9°
Drops below altitude 10° 12:44:17 10° 135° (SE) 5,980 11.5 28.8°
Sets 12:56:09 0° 98° (E) 6,249 11.1 28.0°
